Temperature
20 20 20 19 19 18 18 18 17 17 16 15 14 14 13 13 12 12 11 11 11 10 10 10 9 9 9 9 9 9 9 9 9 9 9 9 9 8 8 8 7 7 7
20 20 20 19 19 19 19 18 18 17 17 16 16 15 14 14 13 12 11 11 11 10 10 10 9 9 9 9 9 9 9 8 8 8 8 8 8 8 8 8 7 7 7
20 20 20 20 20 19 19 19 19 18 17 17 15 14 13 12 12 12 11 11 11 10 10 10 9 9 9 9 9 9 8 8 8 8 8 8 8 8 8 8 7 7 6
19 20 20 20 20 20 20 19 19 18 18 17 15 15 14 13 13 13 12 11 11 10 10 10 9 9 9 9 9 9 8 8 8 8 8 8 7 7 7 7 7 7 6
19 20 20 20 20 20 19 19 19 18 17 17 16 15 15 14 14 13 12 11 11 11 10 10 10 9 9 9 9 9 8 8 8 8 8 8 7 7 6 6 7 6 6
19 19 19 19 19 19 19 19 18 18 17 16 16 15 15 14 13 13 12 11 11 11 10 10 10 9 9 9 9 8 8 8 8 8 8 7 7 7 6 6 6 6 6
18 19 19 19 19 19 19 18 18 17 17 16 15 15 14 14 13 13 12 12 11 11 11 10 10 9 9 9 9 8 8 8 8 8 7 7 7 6 6 5 5 5 5
18 18 18 18 19 18 18 18 17 17 16 16 15 14 14 13 13 12 12 12 11 11 11 10 10 9 9 9 9 8 8 8 8 7 7 7 7 6 5 5 4 4 4
18 18 18 18 18 18 18 17 17 16 16 15 14 14 13 13 12 12 12 11 11 11 10 10 10 9 9 9 8 8 8 8 8 7 7 7 6 6 5 5 4 3 2
18 18 18 18 17 17 17 16 16 16 15 14 14 13 13 12 12 12 11 11 11 10 10 10 9 9 9 9 8 8 8 8 7 7 7 6 6 5 5 4 4 3 2
18 18 18 17 17 17 16 16 15 15 14 14 13 13 12 12 12 11 11 11 10 10 10 10 9 9 9 8 8 8 7 7 7 7 6 6 5 5 4 4 3 3 2
17 17 17 17 17 16 16 16 15 14 14 14 13 13 12 12 11 11 11 10 10 10 9 9 9 9 8 8 8 8 7 7 7 6 6 5 5 4 4 3 3 2 1
17 17 17 17 17 16 16 15 15 14 14 13 13 12 12 11 11 11 10 10 10 9 9 9 9 8 8 8 7 7 7 6 6 6 5 5 4 4 3 3 2 1 1
17 17 17 17 17 16 16 15 14 14 13 13 13 12 12 11 11 10 10 10 9 9 9 8 8 8 8 7 7 7 6 6 5 5 5 4 4 3 3 2 1 1 0
17 17 17 17 17 16 15 15 14 14 13 13 12 12 12 11 10 10 10 9 9 9 8 8 8 8 7 7 7 6 6 5 5 4 4 4 3 2 2 1 1 0 -1
17 17 17 17 17 16 16 15 14 13 13 12 12 12 11 11 10 9 9 9 8 8 8 8 8 7 7 7 6 6 5 5 4 4 4 3 2 2 1 1 0 -1 -1
18 18 18 17 17 17 16 15 14 14 13 12 12 11 11 10 10 9 9 9 8 8 8 7 7 7 6 6 6 5 5 4 4 3 3 2 2 1 1 0 -0 -1 -2
18 18 18 17 17 16 16 15 14 13 13 12 11 11 10 10 9 9 9 8 8 8 7 7 7 6 6 5 5 4 4 4 3 3 2 2 1 1 -0 -1 -1 -2 -2
18 18 18 17 17 16 16 15 14 13 13 12 11 11 10 10 9 9 8 8 7 7 7 6 6 6 5 5 4 4 3 3 2 2 1 1 0 -0 -1 -1 -2 -3 -3
17 17 17 17 17 16 15 15 14 13 13 12 11 10 10 9 9 8 8 7 7 7 6 6 5 5 4 4 3 3 3 2 2 1 1 -0 -1 -1 -2 -3 -3 -4 -4
17 17 17 17 16 16 15 15 14 13 13 12 11 10 9 9 8 8 7 7 6 6 5 5 5 4 4 3 3 2 2 1 1 0 -0 -1 -2 -2 -3 -4 -4 -5 -5
16 16 16 16 16 15 15 14 14 13 12 11 10 10 9 8 8 7 7 6 6 5 5 4 4 3 3 2 2 2 1 0 -0 -1 -1 -2 -3 -3 -4 -5 -5 -6 -6
15 16 16 15 15 15 14 14 13 12 12 11 10 9 8 8 7 7 6 6 5 5 4 4 3 3 2 2 1 1 0 -0 -1 -2 -2 -3 -4 -4 -5 -5 -6 -6 -7
15 15 15 15 14 14 13 13 13 12 11 10 9 9 8 7 7 6 5 5 5 4 4 3 3 2 1 1 0 -0 -1 -1 -2 -3 -3 -4 -4 -5 -6 -6 -7 -7 -8
14 14 14 14 14 13 13 12 12 11 10 9 9 8 7 7 6 5 5 4 4 3 3 2 2 1 1 0 -1 -1 -2 -3 -3 -4 -4 -5 -5 -6 -6 -7 -7 -8 -8
13 13 13 13 13 12 12 11 11 10 10 9 8 8 7 6 5 5 4 3 3 3 2 2 1 1 -0 -1 -2 -2 -3 -4 -4 -5 -5 -6 -6 -7 -8 -8 -8 -9 -9
Wind_Speed
14 11 12 12 12 13 15 18 19 17 15 14 13 12 12 10 9 9 14 16 16 16 13 8 7 7 5 5 5 3 3 2 1 2 2 3 2 2 2 2 2 2 3
10 10 10 11 14 16 18 18 19 19 18 16 14 10 8 7 8 7 11 15 16 16 14 10 7 7 5 6 5 4 3 2 2 3 2 2 4 2 1 1 1 1 2
14 11 10 11 12 15 18 18 20 19 19 15 10 7 5 4 6 8 9 11 15 16 14 13 10 8 7 7 6 6 6 4 1 1 3 3 3 3 3 2 1 2 1
11 9 9 10 12 15 14 15 17 17 17 16 15 16 12 11 12 9 9 9 13 14 15 14 12 9 7 7 7 6 5 5 3 2 1 2 3 2 3 3 2 3 3
10 10 9 10 10 11 11 12 14 15 15 17 18 18 13 10 7 6 9 10 9 11 13 13 11 9 7 8 8 7 6 5 5 4 3 2 1 2 3 4 4 3 3
8 7 6 6 6 7 9 10 13 14 15 17 17 17 15 12 11 9 10 9 7 7 10 11 10 9 8 8 8 8 8 6 5 4 4 4 3 4 4 5 4 4 4
6 6 6 6 7 8 10 11 13 13 14 16 16 16 15 15 14 12 12 10 8 7 10 9 9 8 8 9 8 7 7 7 6 6 5 5 4 4 4 3 3 3 3
7 7 8 7 7 9 10 11 13 12 14 15 15 13 13 11 10 11 10 11 10 10 10 10 10 9 9 9 8 6 6 6 7 7 6 4 4 4 4 4 3 2 3
8 7 7 7 7 8 9 10 12 11 13 13 12 11 12 11 10 10 9 9 7 7 10 10 10 9 9 9 8 6 6 6 6 6 6 5 4 4 4 4 4 4 4
7 7 6 6 6 6 6 7 9 10 10 11 11 10 11 11 10 9 10 9 8 8 9 9 9 9 8 8 8 6 6 7 6 5 6 5 4 4 4 4 4 4 5
8 7 6 5 6 6 7 7 8 8 8 10 10 10 9 9 9 9 10 9 8 9 10 10 9 9 9 8 8 7 7 7 6 5 6 6 5 4 4 4 4 5 5
6 6 6 6 6 7 7 8 8 9 9 9 9 9 9 9 9 9 9 9 9 9 9 9 8 8 8 8 9 8 8 8 7 7 6 6 5 5 4 4 5 5 6
6 5 6 6 7 7 7 8 8 8 8 9 9 9 9 9 9 8 8 8 8 8 8 8 8 8 8 8 8 8 7 7 7 7 7 6 6 6 5 5 6 5 5
7 7 6 6 7 7 7 8 8 8 9 9 9 9 9 9 9 8 8 8 8 8 8 8 7 7 7 7 7 6 6 6 5 5 6 6 7 7 6 6 6 5 5
7 9 8 8 7 7 7 7 8 8 9 9 9 9 8 8 8 7 7 7 7 7 7 7 6 6 6 6 7 6 6 5 4 4 5 5 7 8 7 5 5 5 5
10 10 9 9 9 9 9 8 9 9 9 9 9 8 8 8 8 7 7 7 6 6 6 6 6 6 4 7 9 7 6 5 5 4 4 4 6 8 9 11 10 8 6
11 11 11 11 11 10 10 10 10 9 9 9 8 8 9 8 8 8 8 7 7 6 6 6 6 5 4 6 7 8 5 5 4 4 3 3 4 5 4 7 9 9 12
11 11 10 10 9 9 9 9 9 10 10 9 9 9 9 9 8 8 7 7 5 6 5 5 5 4 3 5 6 6 4 3 3 3 3 4 4 4 4 4 4 5 7
11 11 10 9 9 10 11 11 10 10 10 10 9 9 10 9 9 8 7 5 6 5 4 4 5 4 2 3 4 5 3 2 2 2 2 2 3 7 8 4 5 6 6
8 8 7 8 10 10 12 13 12 11 11 10 9 9 9 10 9 8 7 5 5 6 6 5 4 4 3 3 4 4 3 2 1 1 1 3 5 8 9 4 4 6 6
8 8 9 10 10 12 13 13 11 11 9 9 9 9 8 9 8 7 6 7 7 7 6 5 4 3 3 3 4 3 2 2 1 1 2 3 7 9 9 8 4 8 7
7 9 10 9 9 12 14 13 11 9 10 11 10 9 9 8 8 9 7 7 8 7 6 5 4 2 2 3 2 2 1 1 1 1 2 3 7 7 8 7 9 11 8
9 8 10 10 9 10 12 14 11 12 12 12 11 10 9 8 8 9 9 7 6 6 5 4 3 2 1 1 2 2 2 2 1 1 3 5 6 6 5 7 10 8 4
8 9 12 13 10 9 9 11 13 13 14 13 11 10 10 9 7 6 6 6 6 5 4 4 3 2 1 1 1 0 1 2 2 2 3 5 6 5 5 6 5 4 3
7 10 13 13 12 11 11 12 13 15 14 13 11 10 9 9 8 6 5 5 4 5 6 4 4 3 1 1 1 1 0 0 1 1 1 2 2 3 3 3 3 3 4
9 10 11 13 13 13 13 12 12 14 16 13 10 8 8 8 8 8 7 8 7 8 7 6 4 2 2 2 2 3 3 4 3 2 1 2 2 3 3 4 4 4 4
Wind_Direction
239 228 215 207 199 194 192 193 194 191 185 187 190 192 198 196 195 196 195 193 191 187 183 180 173 171 172 172 159 141 129 102 93 79 14 359 14 37 39 43 59 52 50
244 231 214 201 199 198 197 195 195 191 189 193 193 193 186 189 192 189 193 194 191 187 187 181 178 175 169 164 163 151 140 126 104 125 93 352 338 341 6 357 12 354 4
234 232 216 206 201 201 199 198 196 192 192 186 175 157 147 142 175 192 196 195 192 189 188 186 180 177 175 178 178 168 159 163 146 128 145 156 240 294 313 310 314 314 311
229 227 217 206 203 205 200 197 193 191 187 179 179 179 187 192 195 191 192 188 190 190 189 185 183 180 179 179 180 175 167 154 168 164 139 160 164 179 293 307 301 298 279
223 223 216 208 202 197 192 190 186 186 182 183 185 187 193 192 173 166 177 186 189 190 189 186 184 183 183 182 175 171 173 171 169 171 163 149 116 155 189 270 301 310 278
215 214 207 188 186 180 180 179 180 184 181 184 186 190 189 177 168 174 182 187 186 188 189 186 185 185 183 183 182 179 178 180 174 173 170 169 172 191 189 228 260 281 285
208 207 200 191 184 176 177 177 178 182 182 184 188 192 190 183 183 183 185 184 183 190 193 187 186 186 187 182 176 177 182 181 181 186 191 191 192 172 173 193 239 265 288
210 210 205 195 186 178 175 175 178 180 181 185 189 188 184 185 189 185 184 188 192 194 187 186 187 186 182 178 175 180 185 182 188 192 190 193 200 184 178 180 185 264 290
214 210 200 188 181 176 177 177 176 176 180 184 182 181 181 183 184 182 181 185 185 181 179 183 184 183 180 177 173 184 186 182 191 194 194 198 200 192 193 186 178 189 257
206 200 190 182 176 172 168 166 170 176 176 178 180 182 183 183 179 176 180 182 178 173 174 180 182 181 180 176 176 181 180 182 192 188 191 202 201 195 193 195 198 196 209
201 193 184 173 163 156 158 162 164 163 168 174 176 174 177 176 172 176 181 178 173 172 177 182 180 181 181 178 180 185 179 188 195 191 197 211 198 197 200 197 203 210 205
190 182 174 162 162 165 166 167 167 168 171 170 169 172 170 168 171 176 176 171 172 176 177 175 176 180 182 180 184 188 186 190 198 202 201 215 203 208 208 207 216 221 216
181 175 173 177 178 176 173 172 171 170 165 163 164 165 167 170 174 174 169 168 169 170 169 170 178 182 181 181 187 186 187 195 201 200 205 213 203 220 222 220 225 230 234
183 183 190 192 186 181 177 175 174 167 161 160 163 168 173 173 172 166 163 165 164 165 169 175 177 176 173 175 178 179 187 194 199 203 209 210 209 222 226 229 232 232 235
194 197 198 194 186 181 178 174 170 166 162 162 167 172 167 161 156 155 156 154 156 161 162 160 158 158 163 175 176 180 183 187 199 212 218 220 226 234 235 238 232 225 234
209 205 199 192 190 187 180 172 170 166 161 165 168 159 153 152 153 151 147 145 145 144 144 153 157 160 175 189 188 179 177 185 197 217 230 236 242 253 264 269 267 258 250
210 204 201 197 193 187 177 174 168 158 159 161 157 154 152 150 151 146 143 147 149 144 147 154 157 167 181 182 185 181 168 181 198 210 224 243 253 269 268 280 287 286 283
212 209 204 197 185 170 162 154 150 155 157 157 155 154 151 149 145 143 146 145 143 147 151 152 155 150 163 172 176 173 157 169 191 207 216 233 257 269 274 255 266 267 272
208 206 197 183 166 161 155 147 150 153 156 160 160 158 154 149 147 149 148 142 139 137 137 139 139 139 148 160 160 145 137 157 201 225 231 245 253 282 295 284 274 278 277
202 190 165 153 157 158 149 149 155 158 166 164 158 152 150 150 152 150 141 133 132 131 125 116 123 129 131 130 132 128 135 153 206 268 274 286 293 298 304 287 270 279 280
192 172 159 161 164 154 150 152 157 167 159 143 138 138 140 141 139 130 125 126 120 116 112 108 99 103 111 120 118 113 122 155 174 236 270 280 303 309 309 307 282 290 307
170 161 158 159 153 153 152 153 159 148 134 133 131 131 129 127 127 122 118 118 121 117 113 108 94 74 75 91 105 94 61 79 158 241 257 280 311 318 319 318 314 318 328
169 158 153 148 147 156 154 152 148 139 134 129 128 126 119 115 123 127 127 121 119 122 123 121 118 97 58 48 56 43 16 4 31 288 318 327 331 333 330 325 325 332 334
163 152 146 148 151 151 142 139 140 137 133 131 129 127 123 116 110 112 123 127 131 129 131 132 133 119 81 33 21 49 25 14 19 24 356 353 350 351 337 333 335 334 313
156 155 156 154 149 140 133 135 138 135 130 129 129 125 123 124 116 106 108 121 135 148 147 154 152 145 157 249 347 47 93 119 142 79 30 3 348 339 331 326 319 317 318
152 147 143 142 141 138 135 138 139 137 134 134 133 131 129 125 123 117 97 84 101 107 107 117 119 112 100 51 27 16 15 7 10 37 7 327 318 308 307 310 310 308 310
Height
1456 1459 1462 1465 1468 1471 1475 1478 1482 1487 1491 1495 1499 1502 1506 1510 1514 1517 1521 1524 1527 1529 1531 1533 1535 1536 1538 1539 1540 1541 1541 1542 1541 1541 1540 1540 1539 1538 1538 1537 1536 1535 1534
1449 1452 1455 1458 1460 1464 1467 1471 1475 1480 1484 1488 1493 1497 1502 1505 1509 1513 1517 1520 1523 1526 1528 1530 1532 1534 1535 1536 1537 1538 1539 1539 1539 1539 1539 1538 1538 1536 1536 1535 1534 1534 1533
1441 1444 1448 1450 1453 1457 1460 1464 1469 1473 1478 1483 1488 1493 1497 1501 1505 1508 1511 1515 1519 1522 1524 1527 1529 1531 1532 1533 1535 1535 1536 1537 1537 1537 1537 1536 1535 1534 1533 1533 1532 1531 1530
1435 1438 1441 1444 1447 1450 1455 1458 1463 1467 1471 1476 1481 1485 1489 1493 1497 1502 1506 1510 1514 1517 1520 1523 1525 1527 1529 1530 1531 1532 1533 1534 1534 1534 1534 1534 1533 1532 1530 1530 1529 1528 1527
1429 1431 1434 1437 1441 1444 1448 1452 1456 1461 1465 1470 1474 1479 1484 1488 1493 1497 1502 1506 1510 1513 1516 1518 1521 1523 1525 1526 1528 1529 1530 1530 1531 1531 1531 1530 1530 1529 1528 1526 1525 1524 1524
1424 1426 1429 1432 1435 1438 1442 1446 1450 1455 1459 1464 1469 1473 1478 1483 1488 1492 1496 1501 1504 1508 1511 1514 1516 1519 1521 1522 1524 1525 1526 1526 1527 1527 1527 1527 1527 1526 1525 1523 1520 1519 1519
1419 1422 1424 1427 1430 1433 1437 1441 1445 1450 1454 1459 1463 1468 1473 1478 1482 1487 1491 1495 1499 1502 1506 1509 1512 1514 1516 1518 1519 1521 1521 1522 1523 1523 1523 1523 1523 1522 1521 1519 1517 1515 1513
1415 1418 1420 1423 1426 1429 1433 1437 1441 1445 1450 1454 1459 1464 1468 1473 1478 1483 1487 1490 1494 1498 1501 1504 1507 1509 1512 1513 1515 1516 1517 1518 1518 1519 1519 1519 1519 1518 1517 1516 1514 1510 1508
1411 1414 1416 1419 1422 1426 1430 1433 1437 1441 1445 1450 1454 1459 1464 1468 1473 1478 1482 1486 1490 1494 1497 1500 1502 1505 1507 1508 1510 1511 1512 1513 1514 1514 1514 1514 1514 1513 1512 1511 1510 1508 1503
1408 1410 1413 1416 1420 1424 1427 1431 1435 1438 1442 1446 1451 1455 1459 1464 1469 1473 1477 1482 1485 1489 1492 1495 1497 1500 1502 1503 1505 1506 1507 1508 1509 1509 1509 1509 1509 1508 1507 1506 1505 1503 1500
1405 1408 1411 1415 1418 1422 1425 1428 1432 1435 1439 1443 1447 1451 1456 1460 1465 1469 1473 1477 1481 1484 1487 1490 1492 1494 1496 1498 1500 1501 1502 1503 1504 1504 1504 1504 1504 1503 1502 1501 1499 1498 1495
1403 1406 1410 1413 1416 1419 1423 1426 1429 1433 1436 1440 1444 1448 1452 1456 1460 1465 1469 1473 1476 1480 1482 1485 1487 1489 1491 1493 1495 1496 1497 1498 1499 1499 1499 1499 1499 1498 1497 1495 1494 1492 1490
1400 1404 1408 1411 1414 1417 1420 1423 1427 1430 1434 1437 1441 1445 1448 1452 1456 1461 1465 1468 1472 1475 1477 1480 1482 1484 1486 1488 1490 1491 1492 1493 1494 1494 1494 1494 1493 1492 1491 1490 1488 1486 1484
1398 1402 1405 1409 1412 1415 1418 1421 1424 1428 1431 1435 1438 1442 1445 1449 1453 1457 1461 1464 1467 1470 1473 1476 1478 1480 1482 1483 1485 1486 1487 1488 1488 1489 1489 1488 1487 1486 1485 1484 1482 1480 1477
1396 1399 1402 1406 1409 1413 1416 1419 1422 1425 1429 1432 1435 1439 1443 1446 1450 1453 1457 1460 1463 1466 1469 1471 1473 1475 1477 1479 1480 1481 1482 1483 1483 1483 1483 1483 1482 1481 1479 1478 1476 1474 1471
1392 1396 1400 1403 1406 1410 1413 1416 1419 1422 1426 1429 1433 1436 1440 1443 1447 1450 1454 1457 1460 1463 1465 1467 1469 1471 1472 1474 1475 1476 1477 1478 1478 1478 1478 1478 1477 1475 1474 1472 1470 1468 1466
1389 1392 1396 1399 1403 1407 1410 1413 1417 1420 1423 1427 1430 1434 1437 1440 1444 1447 1451 1453 1456 1459 1461 1463 1465 1467 1469 1470 1471 1472 1472 1473 1473 1473 1472 1472 1471 1469 1468 1466 1464 1462 1460
1385 1388 1392 1396 1400 1404 1407 1411 1414 1417 1421 1424 1428 1431 1434 1438 1441 1444 1447 1450 1453 1455 1457 1460 1461 1463 1465 1466 1466 1467 1468 1468 1468 1468 1467 1466 1465 1463 1461 1459 1457 1455 1453
1380 1384 1388 1392 1396 1400 1403 1407 1411 1414 1418 1421 1425 1428 1432 1435 1438 1441 1444 1447 1450 1452 1454 1456 1458 1459 1461 1461 1462 1463 1463 1463 1463 1463 1462 1460 1459 1457 1455 1453 1450 1447 1446
1375 1379 1383 1387 1391 1395 1399 1403 1407 1411 1415 1419 1422 1426 1430 1433 1436 1439 1442 1445 1447 1449 1451 1453 1455 1456 1457 1458 1458 1458 1458 1458 1458 1458 1457 1455 1453 1452 1449 1447 1444 1441 1439
1370 1374 1378 1382 1386 1391 1395 1399 1404 1408 1412 1416 1420 1424 1428 1431 1434 1437 1440 1442 1444 1446 1448 1450 1451 1452 1453 1454 1454 1454 1454 1454 1453 1452 1451 1449 1448 1446 1444 1441 1439 1436 1433
1363 1368 1372 1377 1382 1387 1391 1396 1400 1405 1410 1414 1418 1422 1425 1429 1432 1435 1437 1439 1442 1444 1445 1447 1448 1449 1450 1450 1450 1450 1450 1449 1448 1447 1445 1444 1442 1440 1438 1436 1434 1431 1428
1357 1362 1367 1372 1378 1383 1388 1392 1398 1402 1407 1411 1415 1419 1423 1427 1430 1432 1435 1437 1439 1441 1442 1444 1445 1446 1446 1447 1447 1446 1446 1445 1444 1442 1440 1439 1437 1435 1433 1431 1428 1426 1423
1351 1357 1362 1367 1373 1379 1385 1390 1395 1400 1404 1409 1413 1417 1421 1424 1427 1430 1433 1435 1437 1438 1439 1441 1442 1442 1443 1443 1443 1442 1441 1440 1438 1437 1435 1434 1432 1430 1428 1426 1423 1421 1418
1347 1352 1358 1364 1370 1376 1382 1387 1392 1397 1402 1407 1411 1415 1419 1422 1425 1428 1431 1433 1435 1436 1437 1438 1439 1439 1439 1439 1439 1438 1437 1436 1434 1432 1431 1429 1427 1425 1423 1420 1418 1416 1413
1343 1349 1355 1361 1367 1373 1379 1385 1391 1396 1400 1404 1409 1413 1417 1420 1423 1426 1428 1430 1432 1433 1434 1435 1436 1436 1436 1436 1435 1435 1433 1432 1430 1428 1426 1424 1422 1420 1418 1416 1413 1411 1409